Weather History for Breckenridge, TX

Change the Weather History Date:

Thursday, October 18, 2012

  Actual Average (KABI) Record (KABI)
Temperature  
Mean Temperature 60 °F 65 °F  
Max Temperature 78 °F 77 °F 91 °F (1921)
Min Temperature 42 °F 54 °F 32 °F (1948)
Degree Days  
Heating Degree Days 5 3  
Month to date heating degree days 36  
Since 1 July heating degree days 47  
Cooling Degree Days 0 3  
Month to date cooling degree days 86  
Year to date cooling degree days 2357  
Growing Degree Days 10 (Base 50)    
Moisture  
Dew Point 31 °F    
Average Humidity 35    
Maximum Humidity 66    
Minimum Humidity 14    
Precipitation  
Precipitation 0.00 in 0.12 in 1.73 in (1965)
Month to date precipitation 1.77  
Year to date precipitation 20.97  
Sea Level Pressure  
Sea Level Pressure 29.97 in    
Wind  
Wind Speed 4 mph (NE)    
Max Wind Speed 10 mph    
Max Gust Speed -    
Visibility 10 miles    
Events      
T = Trace of Precipitation, MM = Missing Value Source: NWS Daily Summary

Daily Weather History Graph

Daily Weather History Graph

Search for Another Location

Airport:

Trip Planner

Search our weather history database for the weather conditions in past years. The results will help you decide how hot, cold, wet, or windy it might be!

Date:

Astronomy

Oct. 18, 2012 Rise Set
Actual Time 7:42 AM CDT 6:58 PM CDT
Civil Twilight 7:17 AM CDT 7:23 PM CDT
Nautical Twilight 6:48 AM CDT 7:52 PM CDT
Astronomical Twilight 6:20 AM CDT 8:20 PM CDT
Moon 11:14 AM CDT (10/18) 9:45 PM CDT (10/18)
Length of Visible Light 12h 06m
Length of Day
11h 16m
Waxing Crescent, 14% of the Moon is Illuminated
Oct 18
Waxing Crescent
Oct 21
First Quarter
Oct 29
Full
Nov 6
Last Quarter
Nov 13
New

Hourly Weather History & Observations

Time (CDT) Temp. Dew Point Humidity Pressure Visibility Wind Dir Wind Speed Gust Speed Precip Events Conditions
12:15 AM 59.0 °F 39.2 °F 48% 29.84 in 10.0 mi NE 3.5 mph - N/A   Clear
12:35 AM 57.2 °F 41.0 °F 55% 29.86 in 10.0 mi NNE 4.6 mph - N/A   Clear
12:55 AM 59.0 °F 41.0 °F 51% 29.86 in 10.0 mi NE 3.5 mph - N/A   Clear
1:15 AM 59.0 °F 39.2 °F 48% 29.87 in 10.0 mi NE 5.8 mph - N/A   Clear
1:35 AM 59.0 °F 37.4 °F 45% 29.88 in 10.0 mi NNE 5.8 mph - N/A   Clear
1:55 AM 59.0 °F 35.6 °F 42% 29.88 in 10.0 mi NE 8.1 mph - N/A   Clear
2:15 AM 59.0 °F 35.6 °F 42% 29.89 in 10.0 mi NE 9.2 mph - N/A   Clear
2:35 AM 59.0 °F 33.8 °F 39% 29.90 in 10.0 mi ENE 5.8 mph - N/A   Clear
2:55 AM 57.2 °F 33.8 °F 41% 29.90 in 10.0 mi ENE 5.8 mph - N/A   Clear
3:15 AM 55.4 °F 33.8 °F 44% 29.91 in 10.0 mi ENE 4.6 mph - N/A   Clear
3:35 AM 55.4 °F 33.8 °F 44% 29.91 in 10.0 mi NE 3.5 mph - N/A   Clear
3:55 AM 53.6 °F 33.8 °F 47% 29.91 in 10.0 mi NE 4.6 mph - N/A   Clear
4:15 AM 53.6 °F 32.0 °F 44% 29.91 in 10.0 mi NE 4.6 mph - N/A   Clear
4:35 AM 53.6 °F 32.0 °F 44% 29.91 in 10.0 mi NE 3.5 mph - N/A   Clear
4:55 AM 51.8 °F 32.0 °F 47% 29.92 in 10.0 mi Calm Calm - N/A   Clear
5:15 AM 50.0 °F 32.0 °F 50% 29.93 in 10.0 mi Calm Calm - N/A   Clear
5:35 AM 48.2 °F 32.0 °F 54% 29.93 in 10.0 mi North 3.5 mph - N/A   Clear
5:55 AM 50.0 °F 32.0 °F 50% 29.94 in 10.0 mi Calm Calm - N/A   Clear
6:15 AM 46.4 °F 32.0 °F 57% 29.94 in 10.0 mi Calm Calm - N/A   Clear
6:35 AM 46.4 °F 32.0 °F 57% 29.95 in 10.0 mi Calm Calm - N/A   Clear
6:55 AM 44.6 °F 32.0 °F 61% 29.96 in 10.0 mi Calm Calm - N/A   Clear
7:15 AM 42.8 °F 30.2 °F 61% 29.97 in 10.0 mi Calm Calm - N/A   Clear
7:35 AM 42.8 °F 32.0 °F 66% 29.97 in 10.0 mi Calm Calm - N/A   Clear
7:55 AM 42.8 °F 28.4 °F 57% 29.98 in 10.0 mi Calm Calm - N/A   Clear
8:15 AM 44.6 °F 32.0 °F 61% 29.99 in 10.0 mi North - - N/A   Clear
8:35 AM 50.0 °F 33.8 °F 54% 30.00 in 10.0 mi Calm Calm - N/A   Clear
8:55 AM 53.6 °F 37.4 °F 54% 30.02 in 10.0 mi Calm Calm - N/A   Clear
9:15 AM 55.4 °F 35.6 °F 47% 30.03 in 10.0 mi Calm Calm - N/A   Clear
9:35 AM 59.0 °F 35.6 °F 42% 30.04 in 10.0 mi Calm Calm - N/A   Clear
9:55 AM 62.6 °F 35.6 °F 37% 30.04 in 10.0 mi NE 3.5 mph - N/A   Clear
10:15 AM 64.4 °F 33.8 °F 32% 30.05 in 10.0 mi Calm Calm - N/A   Clear
10:35 AM 68.0 °F 32.0 °F 26% 30.05 in 10.0 mi ENE 6.9 mph - N/A   Clear
10:55 AM 69.8 °F 28.4 °F 21% 30.05 in 10.0 mi East 9.2 mph - N/A   Clear
11:15 AM 71.6 °F 28.4 °F 20% 30.05 in 10.0 mi ENE 6.9 mph - N/A   Clear
11:35 AM 71.6 °F 26.6 °F 19% 30.05 in 10.0 mi ENE 9.2 mph - N/A   Clear
11:55 AM 71.6 °F 26.6 °F 19% 30.05 in 10.0 mi ENE 10.4 mph - N/A   Clear
12:15 PM 73.4 °F 24.8 °F 16% 30.05 in 10.0 mi NE 6.9 mph - N/A   Clear
12:35 PM 73.4 °F 24.8 °F 16% 30.05 in 10.0 mi East 4.6 mph - N/A   Clear
12:55 PM 75.2 °F 24.8 °F 15% 30.04 in 10.0 mi ESE 8.1 mph - N/A   Clear
1:15 PM 75.2 °F 23.0 °F 14% 30.03 in 10.0 mi ENE 3.5 mph - N/A   Clear
1:35 PM 75.2 °F 23.0 °F 14% 30.03 in 10.0 mi East 6.9 mph - N/A   Clear
1:55 PM 77.0 °F 24.8 °F 14% 30.02 in 10.0 mi ENE 4.6 mph - N/A   Clear
2:15 PM 77.0 °F 26.6 °F 16% 30.01 in 10.0 mi NNE 5.8 mph - N/A   Clear
2:35 PM 75.2 °F 24.8 °F 15% 30.00 in 10.0 mi Calm Calm - N/A   Clear
2:55 PM 77.0 °F 26.6 °F 16% 29.99 in 10.0 mi Calm Calm - N/A   Clear
3:15 PM 78.8 °F 28.4 °F 16% 29.98 in 10.0 mi NW 3.5 mph - N/A   Clear
3:35 PM 77.0 °F 28.4 °F 17% 29.98 in 10.0 mi West 5.8 mph - N/A   Clear
3:55 PM 78.8 °F 26.6 °F 15% 29.98 in 10.0 mi East 5.8 mph - N/A   Clear
4:15 PM 77.0 °F 26.6 °F 16% 29.98 in 10.0 mi Calm Calm - N/A   Clear
4:35 PM 78.8 °F 28.4 °F 16% 29.98 in 10.0 mi NW 5.8 mph - N/A   Clear
4:55 PM 77.0 °F 26.6 °F 16% 29.98 in 10.0 mi NNW 3.5 mph - N/A   Clear
5:15 PM 77.0 °F 26.6 °F 16% 29.98 in 10.0 mi NNW 4.6 mph - N/A   Clear
5:35 PM 77.0 °F 26.6 °F 16% 29.97 in 10.0 mi WNW 4.6 mph - N/A   Clear
5:55 PM 77.0 °F 24.8 °F 14% 29.96 in 10.0 mi Calm Calm - N/A   Clear
6:15 PM 73.4 °F 26.6 °F 18% 29.97 in 10.0 mi NNW 3.5 mph - N/A   Clear
6:35 PM 71.6 °F 28.4 °F 20% 29.97 in 10.0 mi North - - N/A   Clear
6:55 PM 68.0 °F 28.4 °F 23% 29.98 in 10.0 mi Calm Calm - N/A   Clear
7:15 PM 68.0 °F 30.2 °F 24% 29.98 in 10.0 mi NE 4.6 mph - N/A   Clear
7:35 PM 64.4 °F 32.0 °F 30% 29.99 in 10.0 mi NE 5.8 mph - N/A   Clear
7:55 PM 62.6 °F 32.0 °F 32% 30.00 in 10.0 mi ENE 4.6 mph - N/A   Clear
8:15 PM 60.8 °F 32.0 °F 34% 30.00 in 10.0 mi ENE 4.6 mph - N/A   Clear
8:35 PM 59.0 °F 32.0 °F 36% 30.01 in 10.0 mi East 4.6 mph - N/A   Clear
8:55 PM 57.2 °F 32.0 °F 38% 30.01 in 10.0 mi East 4.6 mph - N/A   Clear
10:15 PM 53.6 °F 32.0 °F 44% 30.02 in 10.0 mi SE 5.8 mph - N/A   Clear
10:35 PM 53.6 °F 32.0 °F 44% 30.02 in 10.0 mi ESE 6.9 mph - N/A   Clear
10:55 PM 53.6 °F 32.0 °F 44% 30.02 in 10.0 mi SSE 3.5 mph - N/A   Clear